RYR37FE LIMJ-EBCI

Flight info

Callsign RYR37FE
Flight time 1h 27m
Altitude 36000
Route LAGEN DCT TONDA DCT PIMOT DCT AOSTA DCT ORSUD DCT MOLUS DCT GILIR DCT PENDU DCT IXILU DCT EPL DCT ROUSY DCT BATTY
Aircraft B738/M-SDE2E3FGHIRWXY/LB1

Departure

Time 2026-04-26 20:55
Airport Genoa Cristoforo Colombo Airport (LIMJ)

Arrival

Time 2026-04-26 22:22
Airport Brussels South Charleroi Airport (EBCI)
Time Latitude Longitude Altitude Speed Heading
2026-04-26 20:16 44.41392 8.85097 20 ft 0 kts 15°
2026-04-26 20:45 44.41383 8.85094 20 ft 4 kts 17°
2026-04-26 20:46 44.41358 8.85080 23 ft 4 kts 33°
2026-04-26 20:46 44.41340 8.85056 21 ft 4 kts 70°
2026-04-26 20:46 44.41338 8.85035 19 ft 0 kts 105°
2026-04-26 20:49 44.41336 8.85047 20 ft 3 kts 105°
2026-04-26 20:49 44.41328 8.85091 21 ft 6 kts 105°
2026-04-26 20:50 44.41313 8.85165 19 ft 9 kts 105°
2026-04-26 20:50 44.41283 8.85255 19 ft 12 kts 141°
2026-04-26 20:50 44.41199 8.85270 19 ft 13 kts 195°
2026-04-26 20:50 44.41115 8.85237 19 ft 13 kts 193°
2026-04-26 20:51 44.41040 8.85181 16 ft 13 kts 202°
2026-04-26 20:51 44.40985 8.85258 17 ft 12 kts 109°
2026-04-26 20:51 44.40964 8.85372 20 ft 12 kts 105°
2026-04-26 20:51 44.40939 8.85499 20 ft 16 kts 105°
2026-04-26 20:52 44.40903 8.85680 21 ft 22 kts 105°
2026-04-26 20:52 44.40862 8.85905 21 ft 21 kts 91°
2026-04-26 20:52 44.40878 8.86067 23 ft 12 kts 122°
2026-04-26 20:52 44.40824 8.86067 22 ft 9 kts 229°
2026-04-26 20:53 44.40840 8.85977 21 ft 11 kts 306°
2026-04-26 20:53 44.40859 8.85904 21 ft 0 kts 285°
2026-04-26 20:54 44.40863 8.85885 21 ft 6 kts 285°
2026-04-26 20:54 44.40921 8.85585 20 ft 65 kts 285°
2026-04-26 20:54 44.41098 8.84677 19 ft 125 kts 285°
2026-04-26 20:54 44.41373 8.83287 115 ft 162 kts 287°
2026-04-26 20:55 44.41673 8.81742 662 ft 166 kts 287°
2026-04-26 20:55 44.41991 8.80189 1301 ft 167 kts 287°
2026-04-26 20:55 44.42348 8.78554 1672 ft 186 kts 287°
2026-04-26 20:55 44.42745 8.76785 2131 ft 197 kts 287°
2026-04-26 20:56 44.43080 8.74929 2845 ft 194 kts 269°
2026-04-26 20:56 44.42665 8.73159 3353 ft 198 kts 225°
2026-04-26 20:56 44.41491 8.72223 3893 ft 197 kts 185°
2026-04-26 20:56 44.40171 8.72622 4397 ft 199 kts 147°
2026-04-26 20:57 44.39054 8.73712 5047 ft 194 kts 153°
2026-04-26 20:57 44.37685 8.74076 5264 ft 216 kts 193°
2026-04-26 20:57 44.36403 8.72942 5519 ft 233 kts 234°
2026-04-26 20:57 44.35890 8.70697 5662 ft 258 kts 274°
2026-04-26 20:58 44.36217 8.68184 6180 ft 267 kts 284°
2026-04-26 20:58 44.36666 8.65652 6696 ft 276 kts 284°
2026-04-26 20:58 44.37128 8.63018 7343 ft 280 kts 285°
2026-04-26 20:58 44.37596 8.60357 7993 ft 286 kts 285°
2026-04-26 20:59 44.38079 8.57649 8680 ft 289 kts 284°
2026-04-26 20:59 44.38561 8.54912 9444 ft 291 kts 285°
2026-04-26 20:59 44.39105 8.52166 10120 ft 295 kts 295°
2026-04-26 20:59 44.40329 8.49851 10529 ft 307 kts 322°
2026-04-26 21:00 44.42301 8.48532 10676 ft 326 kts 346°
2026-04-26 21:00 44.44560 8.47771 11100 ft 338 kts 348°
2026-04-26 21:00 44.46871 8.46989 11729 ft 343 kts 347°
2026-04-26 21:00 44.49194 8.46164 12478 ft 345 kts 346°
2026-04-26 21:01 44.51530 8.45309 13233 ft 347 kts 346°
2026-04-26 21:01 44.53870 8.44442 14026 ft 349 kts 346°
2026-04-26 21:01 44.56220 8.43566 14729 ft 352 kts 345°
2026-04-26 21:01 44.58579 8.42685 15299 ft 359 kts 345°
2026-04-26 21:02 44.61009 8.41777 15950 ft 363 kts 345°
2026-04-26 21:02 44.63462 8.40860 16674 ft 366 kts 345°
2026-04-26 21:02 44.65931 8.39936 17366 ft 369 kts 344°
2026-04-26 21:02 44.68435 8.38999 17959 ft 375 kts 344°
2026-04-26 21:03 44.70151 8.38355 18354 ft 380 kts 344°
2026-04-26 21:03 44.72686 8.37405 18933 ft 383 kts 344°
2026-04-26 21:03 44.75300 8.36425 19587 ft 384 kts 344°
2026-04-26 21:03 44.77896 8.35450 20147 ft 388 kts 344°
2026-04-26 21:04 44.80487 8.34477 20648 ft 393 kts 344°
2026-04-26 21:04 44.83140 8.33479 21236 ft 395 kts 344°
2026-04-26 21:04 44.85806 8.32475 21812 ft 398 kts 344°
2026-04-26 21:04 44.88490 8.31464 22368 ft 401 kts 344°
2026-04-26 21:05 44.91206 8.30439 22936 ft 404 kts 345°
2026-04-26 21:05 44.93926 8.29412 23478 ft 406 kts 345°
2026-04-26 21:05 44.96675 8.28373 23941 ft 410 kts 344°
2026-04-26 21:05 44.99439 8.27327 24387 ft 412 kts 344°
2026-04-26 21:06 45.02214 8.26276 24836 ft 414 kts 344°
2026-04-26 21:06 45.05007 8.25217 25283 ft 416 kts 344°
2026-04-26 21:06 45.07809 8.24134 25720 ft 419 kts 341°
2026-04-26 21:06 45.10503 8.22565 26121 ft 420 kts 331°
2026-04-26 21:07 45.12987 8.20387 26582 ft 420 kts 322°
2026-04-26 21:07 45.15215 8.17695 27009 ft 421 kts 317°
2026-04-26 21:07 45.17378 8.14885 27412 ft 424 kts 316°
2026-04-26 21:07 45.19523 8.12069 27798 ft 426 kts 316°
2026-04-26 21:08 45.21733 8.09175 28181 ft 428 kts 317°
2026-04-26 21:08 45.23937 8.06305 28507 ft 432 kts 317°
2026-04-26 21:08 45.26129 8.03466 28864 ft 434 kts 317°
2026-04-26 21:08 45.28367 8.00578 29253 ft 435 kts 317°
2026-04-26 21:09 45.30617 7.97675 29638 ft 437 kts 317°
2026-04-26 21:09 45.32868 7.94769 30075 ft 437 kts 317°
2026-04-26 21:09 45.35112 7.91871 30542 ft 434 kts 317°
2026-04-26 21:09 45.37343 7.88986 31007 ft 432 kts 317°
2026-04-26 21:10 45.39564 7.86109 31423 ft 431 kts 317°
2026-04-26 21:10 45.41779 7.83237 31793 ft 430 kts 317°
2026-04-26 21:10 45.43984 7.80372 32202 ft 429 kts 317°
2026-04-26 21:10 45.46183 7.77515 32610 ft 427 kts 317°
2026-04-26 21:11 45.48380 7.74657 32955 ft 427 kts 318°
2026-04-26 21:11 45.50573 7.71801 33297 ft 427 kts 318°
2026-04-26 21:11 45.52753 7.68996 33718 ft 425 kts 319°
2026-04-26 21:11 45.54950 7.66200 34197 ft 420 kts 319°
2026-04-26 21:12 45.57127 7.63437 34526 ft 419 kts 319°
2026-04-26 21:12 45.59308 7.60665 34727 ft 420 kts 319°
2026-04-26 21:12 45.61492 7.57884 34967 ft 421 kts 319°
2026-04-26 21:12 45.63673 7.55099 35252 ft 420 kts 319°
2026-04-26 21:13 45.65847 7.52316 35591 ft 418 kts 318°
2026-04-26 21:13 45.68011 7.49543 35903 ft 417 kts 318°
2026-04-26 21:13 45.70169 7.46773 36152 ft 417 kts 318°
2026-04-26 21:14 45.74527 7.41172 36185 ft 422 kts 319°
2026-04-26 21:14 45.78860 7.35592 36165 ft 414 kts 319°
2026-04-26 21:15 45.83390 7.30605 36183 ft 413 kts 325°
2026-04-26 21:15 45.88128 7.25928 36177 ft 413 kts 326°
2026-04-26 21:16 45.92840 7.21175 36191 ft 414 kts 325°
2026-04-26 21:16 45.97548 7.16363 36179 ft 416 kts 325°
2026-04-26 21:17 46.02270 7.11528 36161 ft 416 kts 325°
2026-04-26 21:17 46.06982 7.06695 36173 ft 416 kts 325°
2026-04-26 21:18 46.11689 7.01856 36163 ft 415 kts 325°
2026-04-26 21:18 46.16385 6.97017 36176 ft 414 kts 325°
2026-04-26 21:19 46.21036 6.92216 36171 ft 413 kts 325°
2026-04-26 21:19 46.25708 6.87382 36156 ft 412 kts 325°
2026-04-26 21:20 46.30363 6.82554 36156 ft 411 kts 325°
2026-04-26 21:20 46.34994 6.77741 36157 ft 409 kts 325°
2026-04-26 21:21 46.39607 6.72938 36178 ft 408 kts 325°
2026-04-26 21:21 46.44230 6.68154 36161 ft 408 kts 327°
2026-04-26 21:22 46.49252 6.64361 36168 ft 407 kts 335°
2026-04-26 21:22 46.54373 6.60856 36175 ft 407 kts 335°
2026-04-26 21:23 46.62016 6.55532 36171 ft 408 kts 334°
2026-04-26 21:23 46.67125 6.51922 36180 ft 409 kts 334°
2026-04-26 21:24 46.72238 6.48295 36164 ft 409 kts 334°
2026-04-26 21:24 46.77354 6.44659 36177 ft 409 kts 334°
2026-04-26 21:25 46.82481 6.41008 36187 ft 410 kts 334°
2026-04-26 21:25 46.87611 6.37347 36187 ft 411 kts 334°
2026-04-26 21:26 46.92756 6.33667 36176 ft 411 kts 334°
2026-04-26 21:26 46.97863 6.30007 36187 ft 411 kts 334°
2026-04-26 21:27 47.02997 6.26320 36188 ft 411 kts 334°
2026-04-26 21:27 47.08130 6.22627 36187 ft 410 kts 334°
2026-04-26 21:28 47.13264 6.18930 36186 ft 410 kts 334°
2026-04-26 21:28 47.18386 6.15234 36170 ft 409 kts 333°
2026-04-26 21:29 47.23501 6.11533 36178 ft 409 kts 333°
2026-04-26 21:29 47.28610 6.07831 36172 ft 409 kts 333°
2026-04-26 21:30 47.33809 6.04456 36164 ft 409 kts 343°
2026-04-26 21:30 47.39404 6.03235 36166 ft 412 kts 358°
2026-04-26 21:31 47.45129 6.03400 36187 ft 411 kts 359°
2026-04-26 21:31 47.50857 6.03597 36175 ft 412 kts 359°
2026-04-26 21:32 47.56592 6.03747 36176 ft 412 kts 359°
2026-04-26 21:32 47.62324 6.03876 36175 ft 412 kts 359°
2026-04-26 21:33 47.68059 6.04004 36183 ft 412 kts 359°
2026-04-26 21:33 47.73810 6.04134 36182 ft 413 kts 359°
2026-04-26 21:34 47.79510 6.04296 36182 ft 413 kts 359°
2026-04-26 21:34 47.85254 6.04480 36177 ft 413 kts 359°
2026-04-26 21:35 47.91001 6.04663 36181 ft 413 kts 359°
2026-04-26 21:35 47.96748 6.04843 36183 ft 413 kts 359°
2026-04-26 21:36 48.01522 6.04992 36191 ft 413 kts 359°
2026-04-26 21:36 48.08245 6.05202 36208 ft 413 kts 359°
2026-04-26 21:37 48.14002 6.05382 36200 ft 414 kts 359°
2026-04-26 21:37 48.19754 6.05563 36211 ft 413 kts 359°
2026-04-26 21:38 48.25507 6.05744 36212 ft 413 kts 359°
2026-04-26 21:38 48.31266 6.05925 36218 ft 414 kts 359°
2026-04-26 21:39 48.36999 6.06160 36211 ft 414 kts 359°
2026-04-26 21:39 48.42754 6.06443 36212 ft 413 kts 359°
2026-04-26 21:40 48.48505 6.06724 36211 ft 413 kts 359°
2026-04-26 21:40 48.54260 6.06999 36213 ft 413 kts 359°
2026-04-26 21:41 48.59973 6.07271 36198 ft 413 kts 359°
2026-04-26 21:41 48.65717 6.07543 36213 ft 413 kts 359°
2026-04-26 21:42 48.71470 6.07816 36212 ft 414 kts 359°
2026-04-26 21:42 48.77227 6.08091 36212 ft 414 kts 359°
2026-04-26 21:43 48.82994 6.08366 36215 ft 415 kts 359°
2026-04-26 21:43 48.88779 6.08643 36234 ft 415 kts 359°
2026-04-26 21:44 48.94566 6.08921 36248 ft 416 kts 359°
2026-04-26 21:44 49.00313 6.09198 36238 ft 416 kts 359°
2026-04-26 21:45 49.06112 6.09478 36233 ft 416 kts 359°
2026-04-26 21:45 49.11904 6.09758 36230 ft 416 kts 359°
2026-04-26 21:46 49.17701 6.10039 36236 ft 416 kts 359°
2026-04-26 21:46 49.22510 6.10272 36223 ft 416 kts 359°
2026-04-26 21:47 49.29236 6.10600 36222 ft 416 kts 359°
2026-04-26 21:47 49.35018 6.10882 36233 ft 415 kts 359°
2026-04-26 21:48 49.39856 6.11118 36238 ft 415 kts 359°
2026-04-26 21:48 49.45590 6.11399 36239 ft 415 kts 359°
2026-04-26 21:49 49.51311 6.10869 36252 ft 410 kts 349°
2026-04-26 21:49 49.56965 6.09538 36243 ft 410 kts 348°
2026-04-26 21:50 49.62619 6.08205 36248 ft 411 kts 348°
2026-04-26 21:50 49.68242 6.06922 36244 ft 411 kts 349°
2026-04-26 21:51 49.73899 6.05652 36244 ft 411 kts 349°
2026-04-26 21:51 49.79555 6.04385 36242 ft 411 kts 349°
2026-04-26 21:52 49.85217 6.03114 36250 ft 411 kts 349°
2026-04-26 21:52 49.90873 6.01840 36249 ft 411 kts 349°
2026-04-26 21:53 49.96470 6.00579 35897 ft 400 kts 349°
2026-04-26 21:53 49.99200 5.99963 35535 ft 395 kts 349°
2026-04-26 21:53 50.01872 5.99359 35222 ft 390 kts 348°
2026-04-26 21:54 50.04555 5.98751 34850 ft 387 kts 348°
2026-04-26 21:54 50.07211 5.98148 34489 ft 385 kts 348°
2026-04-26 21:54 50.09846 5.97549 34107 ft 382 kts 348°
2026-04-26 21:54 50.12468 5.96952 33700 ft 379 kts 348°
2026-04-26 21:55 50.15071 5.96359 33339 ft 376 kts 348°
2026-04-26 21:55 50.17648 5.95772 32966 ft 373 kts 348°
2026-04-26 21:55 50.20204 5.95189 32623 ft 369 kts 348°
2026-04-26 21:55 50.22736 5.94610 32266 ft 367 kts 348°
2026-04-26 21:56 50.25256 5.94034 31919 ft 364 kts 348°
2026-04-26 21:56 50.27752 5.93462 31588 ft 361 kts 348°
2026-04-26 21:56 50.30232 5.92894 31247 ft 359 kts 348°
2026-04-26 21:56 50.32701 5.92327 30909 ft 357 kts 348°
2026-04-26 21:57 50.35155 5.91763 30580 ft 355 kts 348°
2026-04-26 21:57 50.37597 5.91202 30238 ft 353 kts 348°
2026-04-26 21:57 50.40024 5.90643 29861 ft 351 kts 348°
2026-04-26 21:57 50.42424 5.90091 29522 ft 347 kts 348°
2026-04-26 21:58 50.44772 5.89549 29180 ft 344 kts 348°
2026-04-26 21:58 50.47132 5.89004 28837 ft 341 kts 348°
2026-04-26 21:58 50.49470 5.88464 28514 ft 338 kts 348°
2026-04-26 21:58 50.51796 5.87925 28168 ft 336 kts 348°
2026-04-26 21:59 50.54103 5.87391 27832 ft 334 kts 348°
2026-04-26 21:59 50.56401 5.86858 27494 ft 331 kts 348°
2026-04-26 21:59 50.58674 5.86331 27171 ft 330 kts 348°
2026-04-26 21:59 50.60945 5.85803 26849 ft 329 kts 348°
2026-04-26 22:00 50.63164 5.85032 26495 ft 325 kts 333°
2026-04-26 22:00 50.65046 5.83102 26235 ft 326 kts 315°
2026-04-26 22:00 50.66457 5.80317 25892 ft 334 kts 299°
2026-04-26 22:00 50.67557 5.77073 25566 ft 336 kts 297°
2026-04-26 22:01 50.68597 5.73788 25210 ft 334 kts 296°
2026-04-26 22:01 50.69621 5.70501 24859 ft 333 kts 296°
2026-04-26 22:01 50.70644 5.67229 24523 ft 331 kts 296°
2026-04-26 22:01 50.71668 5.63976 24180 ft 330 kts 296°
2026-04-26 22:02 50.72691 5.60748 23863 ft 329 kts 296°
2026-04-26 22:02 50.73715 5.57525 23478 ft 327 kts 296°
2026-04-26 22:02 50.74733 5.54326 23124 ft 325 kts 296°
2026-04-26 22:02 50.75746 5.51146 22767 ft 323 kts 296°
2026-04-26 22:03 50.76752 5.47985 22416 ft 321 kts 296°
2026-04-26 22:03 50.77754 5.44834 22094 ft 319 kts 296°
2026-04-26 22:03 50.78733 5.41751 21772 ft 317 kts 296°
2026-04-26 22:03 50.79720 5.38642 21447 ft 315 kts 296°
2026-04-26 22:04 50.80698 5.35555 21126 ft 313 kts 296°
2026-04-26 22:04 50.81670 5.32484 20807 ft 311 kts 296°
2026-04-26 22:04 50.82637 5.29426 20494 ft 310 kts 296°
2026-04-26 22:04 50.83597 5.26386 20173 ft 308 kts 296°
2026-04-26 22:05 50.84554 5.23354 19859 ft 307 kts 296°
2026-04-26 22:05 50.85506 5.20331 19547 ft 306 kts 296°
2026-04-26 22:05 50.86454 5.17319 19231 ft 305 kts 295°
2026-04-26 22:05 50.87389 5.14298 18910 ft 304 kts 291°
2026-04-26 22:06 50.87851 5.11056 18602 ft 301 kts 274°
2026-04-26 22:06 50.87992 5.07751 18261 ft 300 kts 273°
2026-04-26 22:06 50.88120 5.04459 17927 ft 299 kts 273°
2026-04-26 22:06 50.88247 5.01222 17608 ft 298 kts 274°
2026-04-26 22:07 50.88380 4.97960 17293 ft 296 kts 274°
2026-04-26 22:07 50.88515 4.94714 16987 ft 294 kts 274°
2026-04-26 22:07 50.88652 4.91490 16684 ft 293 kts 274°
2026-04-26 22:07 50.88789 4.88271 16385 ft 291 kts 274°
2026-04-26 22:08 50.88926 4.85074 16086 ft 290 kts 274°
2026-04-26 22:08 50.89062 4.81892 15788 ft 289 kts 274°
2026-04-26 22:08 50.89197 4.78727 15490 ft 288 kts 274°
2026-04-26 22:08 50.89331 4.75566 15192 ft 287 kts 274°
2026-04-26 22:09 50.89464 4.72425 14899 ft 286 kts 274°
2026-04-26 22:09 50.89596 4.69285 14607 ft 285 kts 274°
2026-04-26 22:09 50.89728 4.66151 14315 ft 284 kts 274°
2026-04-26 22:09 50.89855 4.63070 14020 ft 283 kts 274°
2026-04-26 22:10 50.89934 4.59948 13649 ft 282 kts 265°
2026-04-26 22:10 50.89251 4.57064 13022 ft 286 kts 232°
2026-04-26 22:10 50.87747 4.54967 12479 ft 289 kts 215°
2026-04-26 22:10 50.86023 4.53336 11985 ft 289 kts 211°
2026-04-26 22:11 50.84259 4.51805 11496 ft 288 kts 210°
2026-04-26 22:11 50.82498 4.50297 11026 ft 287 kts 210°
2026-04-26 22:11 50.80767 4.48808 10577 ft 286 kts 210°
2026-04-26 22:11 50.79026 4.47300 10112 ft 284 kts 210°
2026-04-26 22:12 50.77298 4.45793 9633 ft 283 kts 210°
2026-04-26 22:12 50.75586 4.44293 9187 ft 280 kts 210°
2026-04-26 22:12 50.73887 4.42802 8752 ft 277 kts 210°
2026-04-26 22:12 50.72236 4.41350 8412 ft 271 kts 210°
2026-04-26 22:13 50.70607 4.39918 8117 ft 265 kts 210°
2026-04-26 22:13 50.69005 4.38508 7835 ft 264 kts 210°
2026-04-26 22:13 50.67396 4.37093 7560 ft 263 kts 210°
2026-04-26 22:13 50.65804 4.35664 7282 ft 263 kts 210°
2026-04-26 22:14 50.64209 4.34256 7025 ft 262 kts 210°
2026-04-26 22:14 50.62616 4.32865 6756 ft 262 kts 209°
2026-04-26 22:14 50.61022 4.31476 6461 ft 261 kts 209°
2026-04-26 22:14 50.59436 4.30091 6176 ft 261 kts 209°
2026-04-26 22:15 50.57850 4.28705 5897 ft 260 kts 209°
2026-04-26 22:15 50.56265 4.27319 5623 ft 260 kts 209°
2026-04-26 22:15 50.54693 4.25945 5433 ft 256 kts 209°
2026-04-26 22:15 50.53150 4.24596 5159 ft 256 kts 208°
2026-04-26 22:16 50.51624 4.23263 4980 ft 252 kts 208°
2026-04-26 22:16 50.50093 4.21925 4854 ft 245 kts 208°
2026-04-26 22:16 50.48638 4.20657 4729 ft 239 kts 208°
2026-04-26 22:16 50.47204 4.19408 4630 ft 232 kts 208°
2026-04-26 22:17 50.45795 4.18199 4410 ft 230 kts 204°
2026-04-26 22:17 50.44264 4.17798 4185 ft 224 kts 166°
2026-04-26 22:17 50.42827 4.18637 3999 ft 219 kts 154°
2026-04-26 22:17 50.41442 4.19634 3771 ft 219 kts 153°
2026-04-26 22:18 50.40263 4.21053 3539 ft 212 kts 121°
2026-04-26 22:18 50.39861 4.23186 3338 ft 202 kts 89°
2026-04-26 22:18 50.40181 4.25251 3127 ft 193 kts 63°
2026-04-26 22:18 50.40753 4.27103 2969 ft 184 kts 66°
2026-04-26 22:19 50.41258 4.28911 2736 ft 180 kts 66°
2026-04-26 22:19 50.41763 4.30690 2504 ft 177 kts 66°
2026-04-26 22:19 50.42258 4.32413 2260 ft 175 kts 66°
2026-04-26 22:19 50.42756 4.34137 2040 ft 171 kts 66°
2026-04-26 22:20 50.43227 4.35766 1839 ft 155 kts 66°
2026-04-26 22:20 50.43514 4.36757 1676 ft 146 kts 66°
2026-04-26 22:20 50.44063 4.38653 1430 ft 141 kts 66°
2026-04-26 22:20 50.44473 4.40069 1255 ft 143 kts 65°
2026-04-26 22:21 50.44885 4.41499 1059 ft 144 kts 65°
2026-04-26 22:21 50.45301 4.42940 853 ft 146 kts 65°
2026-04-26 22:21 50.45727 4.44405 640 ft 148 kts 65°
2026-04-26 22:21 50.46134 4.45802 594 ft 127 kts 63°
2026-04-26 22:22 50.46441 4.46849 593 ft 85 kts 66°
2026-04-26 22:22 50.46621 4.47428 595 ft 24 kts 35°